Miscellaneous Local Product
Issued by NWS North Platte, NE

Home | Current Version | Previous Version | Text Only | Print | Product List | Glossary On
Versions: 1 2 3 4 5 6 7 8 9 10 11 12 13 14 15 16 17 18 19 20 21 22 23 24 25 26 27 28 29 30 31 32 33 34 35 36 37 38 39 40 41 42 43 44 45 46 47 48 49 50
000
AXUS43 KLBF 021210
MISLBF


WESTERN AND NORTH CENTRAL NEBRASKA HOURLY WEATHER ROUNDUP
NATIONAL WEATHER SERVICE NORTH PLATTE NE
600 AM CST MON MAR 02 2015

***STATIONS NOT REPORTING VARIABLES SUCH AS SKY/WEATHER OR
PRESSURE ARE PROVIDED BY THE NEBRASKA DEPARTMENT OF
ROADS...RAWS...AND APRS NETWORKS...AND ARE NOT UNDER
NATIONAL WEATHER SERVICE QUALITY CONTROL***

...OBSERVATIONS IN AND NEAR THE EASTERN PANHANDLE OF NEBRASKA...

CITY           SKY/WX    TMP DP  RH WIND       PRES   REMARKS
PINE RIDGE     MOCLDY    25  10  53 VRB5      30.08F WCI  19
CHADRON        CLOUDY    31  16  54 S20       30.06F WCI  19
ALLIANCE       MOCLDY    23  15  71 S10       30.09F WCI  12
SIDNEY         CLOUDY    26  19  74 S15       30.11F WCI  14
WHITECLAY        N/A     26  11  54 S17         N/A  WCI  12
CRESCENT LAKE    N/A     22  13  69 S7          N/A  WCI  14
LISCO            N/A     29  18  61 E9          N/A  WCI  21
BIG SPRINGS      N/A     28  21  75 S5          N/A  WCI  23
LEWELLEN         N/A     26  17  67 S5          N/A  WCI  21
$$

...OBSERVATIONS IN NORTH CENTRAL NEBRASKA...

CITY           SKY/WX    TMP DP  RH WIND       PRES   REMARKS
VALENTINE      CLOUDY    20  10  65 S13       30.23F WCI   7
THEDFORD       CLOUDY    26  12  54 SE9       30.24F WCI  17
AINSWORTH      MOCLDY    21  11  64 S14       30.26S WCI   8
O`NEILL        PTCLDY    18  12  76 SE6       30.34F WCI  10
ORD            MOCLDY    22  11  62 SE7       30.33F WCI  13
BROKEN BOW     CLOUDY    25  12  58 SE10      30.29F WCI  15
BROWNLEE         N/A     22  10  61 SE15        N/A  WCI   8
SPRINGVIEW       N/A     11   8  85 CALM        N/A
BREWSTER         N/A     30  16  55 S10         N/A  WCI  21
ROSE             N/A     28  17  65 E13         N/A  WCI  17
NEWPORT          N/A     25  18  76 SE7         N/A  WCI  17
SARGENT          N/A     23  15  71 SE3         N/A
COMSTOCK         N/A     30  16  55 SE12        N/A  WCI  21
CHAMBERS         N/A     18   7  60 S3          N/A
EWING            N/A     17  12  79 CALM        N/A
$$

...OBSERVATIONS IN SOUTHWEST NEBRASKA AND FAR NORTHEAST COLORADO...

CITY           SKY/WX    TMP DP  RH WIND       PRES   REMARKS
WRAY           CLOUDY    30  20  65 SE14G21   30.19S WCI  19
IMPERIAL         N/A     30  17  58 S17       30.21F WCI  18
OGALLALA       MOCLDY    26  19  77 SE5       30.20R WCI  20
NORTH PLATTE   CLOUDY    24  14  65 E7        30.25F WCI  16
MCCOOK         CLOUDY    31  22  69 S16       30.30R WCI  20
LEXINGTON      CLOUDY    29  16  57 SE7       30.31S WCI  22
PAXTON           N/A     25  18  74 S6          N/A  WCI  18
BRADY            N/A     26  15  62 CALM        N/A
GOTHENBURG       N/A     27  14  58 SE5         N/A  WCI  22
CALLAWAY         N/A     26  15  61 SE10        N/A  WCI  16
$$

...NORTH PLATTE AREA...

CITY           SKY/WX    TMP DP  RH WIND       PRES   REMARKS
AIRPORT        CLOUDY    24  14  65 E7        30.25F WCI  16
DOWNTOWN         N/A     24  14  66 E3          N/A
$$

...SOME WEATHER OBSERVATIONS FROM AROUND THE REGION...

CITY           SKY/WX    TMP DP  RH WIND       PRES   REMARKS
DENVER         MOCLDY    18  15  88 SW8       30.02S FOG     WCI   8
LARAMIE        LGT SNOW  22  19  89 S16       29.90S FOG     WCI   8
CHEYENNE       CLOUDY    19  16  88 S12       29.97F FOG     WCI   7
SCOTTSBLUFF    CLOUDY    30  19  63 SE12      30.07F WCI  20
RAPID CITY     CLEAR     16   8  71 SE9       30.04F WCI   4
PIERRE         PTCLDY    13  10  88 SE7       30.27F WCI   3
WINNER         FAIR      19   6  57 SE13      30.28F WCI   6
SIOUX FALLS    PTCLDY     3  -1  83 CALM      30.43F
OMAHA          MOCLDY    19  15  84 E3        30.49R
GRAND ISLAND   CLOUDY    26  13  57 E9        30.38F WCI  17
KANSAS CITY    PTCLDY    23  17  78 CALM      30.48R
WICHITA        CLOUDY    21  17  84 SE3       30.44R
HAYS           PTCLDY    19  10  68 SE5       30.37S WCI  13
LIBERAL        CLOUDY    23  18  80 S7        30.32F WCI  15
GOODLAND       CLEAR     22  20  92 S9        30.22F WCI  12
$$



USA.gov is the U.S. government's official web portal to all federal, state and local government web resources and services.